STARLINK-3783, 52282

Orbit data source: Space-Track

STARLINK-3783, 52282 is a payload satellite owned by SpaceX/Seattle (US) in LEO that was launched on Thu, 21 Apr 2022 UTC via an FALCON 9 launch vehicle from the Air Force Eastern Test Range (AFETR). Payload-class satellites include a variety of spacecraft equipped with specific instruments for various scientific and technological missions. These include communications satellites like Starlink; space stations such as the ISS; scientific satellites like the Hubble; Earth observation satellites from companies like Planet Labs, Umbra, and HawkEye 360; GPS; miniature CubeSats for education and research; and military/defense satellites.

Loading next visibility...
Identifier
52282, 2022-041X
Orbit
LEO
Country
Flag of USUS
Related business
Manufacturer
SpaceX/Seattle
Mission
Operational Commercial Communications
Bus & Motor
STARLINK, Unknown motor
Mass
297 kg wet, ~275 kg dry
Launch date (UTC)
2022-04-21 (4 years ago)
Launch vehicle
FALCON 9
Launch site
Air Force Eastern Test Range (AFETR)
Object type
Payload
Rocket body
Debris
Shape & HBR
Box + 1 Pan, 10.1 m
Radar Cross Section
11.087 m², Large (>1 m²)

Expand to show TLE details & history
Last TLE update: 12 hours ago

TLE from 12 hours ago
0 STARLINK-3783
1 52282U 22041X   26263.38105250  .00000717  00000-0  33134-4 0  9994
2 52282  53.1596 292.3807 0001179  80.1908 279.9228 15.33551791244060
Epoch: 2026-09-20T09:08Z
TLE epoch observation values (Epoch: 2026-09-20T09:08:42.936Z)
Latitude
0.00006°
Longitude
155.92579°
Altitude
465.987 km
Speed
7.635 km/s
True Right ascension
19h 29m 31s
True Declination
0° 00' 00"
Sunlit
Object was in full shadow at epoch
Visualization orbit readout
Latitude
Unknown
Longitude
Unknown
Altitude
Unknown
Speed
Unknown
Apparent Right ascension
Unknown
Apparent Declination
Unknown
Sunlit
N/A
Visualization observer readout
Local Sidereal Time
14:00:12
Azimuth
Unknown
Elevation
Unknown
Doppler factor
Unknown
Orbital elements
Apogee altitude
466.289 km
Perigee altitude
464.675 km
Semi-major axis
6,843.619 km
Eccentricity
0.00012
Inclination
53.1596°
RAAN
292.3807°
Arg. of periapsis
80.1908°
True anomaly
279.90949°
Mean anomaly
279.9228°
Eccentric anomaly
279.91615°
Mean motion
3.83367 °/min
Orbital period
93.9 mins
BSTAR
0.000033134
Loading maneuver chart data...
Computing Atmospheric mass density...
Loading historical data...
Loading historical data...
Loading historical data...
Loading historical data...
Loading historical data...
Loading historical data...
Loading historical data...

Documentation

Showing up to 5 results
|